#timestamp,LO_Frequency,Hit,StdDev 
1657972815.7,286046997.0,N
1657972835.5,286046998.3,N
1657972855.4,286047002.1,N
1657972875.2,286047002.6,N
1657972895.1,286046998.7,N
1657972896.0,286046998.7,N
1657972915.8,286047005.4,N
1657972935.6,286047001.3,N
1657972955.5,286047003.6,N
1657972975.3,286047001.5,N
1657972995.2,286046998.7,N
1657973015.9,286046998.2,N
1657973035.7,286047002.2,N
1657973055.6,286047002.1,N
1657973075.4,286046999.5,N
1657973095.2,286046998.7,N
1657973115.1,286046996.7,N
1657973116.0,286046996.7,N
1657973135.8,286047002.8,N
1657973155.7,286046999.8,N
1657973175.5,286046999.0,N
1657973195.3,286046998.8,N
1657973215.2,286047001.5,N
1657973235.0,286047002.2,N
1657973235.9,286047002.2,N
1657973255.7,286047005.7,N
1657973275.6,286047004.2,N
1657973295.4,286047002.9,N
1657973315.3,286047007.3,N
1657973335.1,286047003.1,N
1657973336.0,286047003.1,N
1657973355.8,286047002.6,N
1657973375.7,286047000.6,N
1657973395.5,286047003.8,N
1657973415.3,286047003.2,N
1657973435.2,286047006.7,N
1657973455.0,286047004.9,N
1657973455.9,286047004.9,N
1657973475.8,286047007.1,N
1657973495.6,286047006.5,N
1657973515.4,286047005.8,N
1657973535.3,286047004.8,N
1657973555.1,286047007.6,N
1657973575.9,286047005.5,N
1657973595.7,286047005.5,N
1657973615.5,286047006.3,N
1657973635.4,286047008.8,N
1657973655.2,286047009.0,Y
1657973675.0,286047009.1,P
1657973675.9,286047009.1,P
1657973695.8,286047006.9,N
1657973715.6,286047004.6,N
1657973735.5,286047007.4,Y
1657973755.3,286047000.8,P
1657973775.1,286046998.3,N
1657973795.9,286047001.9,N
1657973815.7,286047005.9,N
1657973835.5,286047003.9,N
1657973855.4,286047004.4,N
1657973875.2,286047001.6,N
1657973895.1,286047004.0,N
1657973896.0,286047004.0,N
1657973915.8,286047000.1,N
1657973935.6,286046995.7,N
1657973955.5,286046995.7,N
1657973975.3,286046996.0,N
1657973995.1,286046997.1,N
1657974015.9,286046995.6,N
1657974035.7,286046995.2,N
1657974055.6,286046991.8,N
1657974075.4,286046990.9,N
1657974095.2,286046987.2,N
1657974115.1,286046984.2,Y
1657974116.0,286046984.2,P
1657974135.8,286046987.0,N
1657974155.7,286046987.4,N
1657974175.5,286046992.0,N
1657974195.3,286046990.7,N
1657974215.2,286046996.3,N
1657974235.9,286046995.6,N
1657974255.7,286046995.3,N
1657974275.6,286046997.2,N
1657974295.4,286046993.7,N
1657974315.3,286046993.6,N
1657974335.1,286046993.4,N
1657974336.0,286046993.4,N
1657974355.8,286046993.5,N
1657974375.7,286046992.3,N
1657974395.5,286046992.2,N
1657974415.3,286046996.3,N
1657974435.2,286046994.5,N
1657974455.0,286046995.5,N
1657974455.9,286046995.5,N
1657974475.8,286046994.9,N
1657974495.6,286046997.7,N
1657974515.4,286046997.6,N
1657974535.3,286046996.4,N
1657974555.1,286046997.7,N
1657974575.8,286046997.8,N
1657974595.7,286046997.0,N
1657974615.5,286046995.0,N
1657974635.4,286046995.5,N
1657974655.2,286046997.1,N
1657974675.0,286046993.4,N
1657974675.9,286046993.4,N
1657974695.8,286046994.1,N
1657974715.6,286046994.3,Y
1657974735.4,286046997.4,P
1657974755.3,286046998.3,N
1657974775.1,286047000.7,N
1657974795.9,286046996.7,N
1657974815.7,286046999.4,N
1657974835.5,286046999.0,N
1657974855.4,286046999.2,N
1657974875.2,286046999.6,N
1657974895.0,286047001.6,N
1657974896.0,286047001.6,N
1657974915.8,286047000.6,N
1657974935.6,286046998.4,N
1657974955.5,286047000.2,N
1657974975.3,286047001.7,N
1657974995.1,286046999.2,N
1657975015.9,286047001.2,N
1657975035.7,286046996.7,N
1657975055.5,286046997.2,N
1657975075.4,286046998.8,N
1657975095.2,286047000.3,N
1657975115.1,286047000.1,N
1657975116.0,286047011.9,Y
1657975135.8,286047002.3,P
1657975155.6,286047000.0,N
1657975175.5,286046999.3,N
1657975195.3,286047001.2,N
1657975215.2,286047004.7,Y
1657975235.9,286047010.1,P
1657975255.7,286047008.4,N
1657975275.6,286047007.2,N
1657975295.4,286047003.9,N
1657975315.2,286047002.0,N
1657975335.1,286047004.4,N
1657975336.0,286047004.4,N
1657975355.8,286047001.7,N
1657975375.7,286047001.0,N
1657975395.5,286047000.9,N
1657975415.3,286046998.7,N
1657975435.2,286046998.7,N
1657975455.0,286046997.8,N
1657975455.9,286046997.8,N
1657975475.7,286046999.3,N
1657975495.6,286047001.6,N
1657975515.4,286047001.5,N
1657975535.3,286046998.2,N
1657975555.1,286046999.5,N
1657975556.0,286046999.5,N
1657975575.8,286046999.1,N
1657975595.7,286047000.5,N
1657975615.5,286047001.3,N
1657975635.3,286047005.8,N
1657975655.2,286047004.3,N
1657975675.0,286047001.7,N
1657975675.9,286047001.7,N
1657975695.8,286047007.2,N
1657975715.6,286047005.4,N
1657975735.4,286047011.9,Y
1657975755.3,286047008.9,P
1657975775.1,286047009.8,N
1657975795.8,286047003.0,N
1657975815.7,286047008.8,N
1657975835.5,286047004.0,N
1657975855.4,286047001.7,N
1657975875.2,286047005.5,N
1657975895.0,286047003.9,N
1657975895.9,286047003.9,N
1657975915.8,286047002.8,N
1657975935.6,286047000.6,N
1657975955.4,286047001.0,N
1657975975.3,286046998.4,N
1657975995.1,286046997.6,N
1657976015.9,286046997.1,N
1657976035.7,286046996.8,N
1657976055.5,286046996.2,N
1657976075.4,286046997.3,N
1657976095.2,286046995.4,N
1657976115.0,286046997.1,N
1657976115.9,286046997.1,N
1657976135.8,286047002.8,N
1657976155.6,286047000.5,N
1657976175.5,286047002.6,N
1657976195.3,286047000.8,N
1657976215.1,286047000.6,N
1657976235.9,286046999.0,N
1657976255.7,286046998.6,N
1657976275.5,286047002.9,N
1657976295.4,286047006.3,N
1657976315.2,286047006.7,N
1657976335.1,286047005.1,N
1657976336.0,286047005.1,N
1657976355.8,286047004.3,N
1657976375.6,286047001.4,N
1657976395.5,286047000.4,N
